CST,Max TemperatureF,Mean TemperatureF,Min TemperatureF,Max Dew PointF,MeanDew PointF,Min DewpointF,Max Humidity, Mean Humidity, Min Humidity, Max Sea Level PressureIn, Mean Sea Level PressureIn, Min Sea Level PressureIn, Max VisibilityMiles, Mean VisibilityMiles, Min VisibilityMiles, Max Wind SpeedMPH, Mean Wind SpeedMPH, Max Gust SpeedMPH,PrecipitationIn, CloudCover, Events, WindDirDegrees
2013-2-1,42,33,24,30,16,9,74,50,28,30.44,30.35,30.15,10,10,10,18,7,28,0.00,0,,320
2013-2-2,46,32,19,37,25,18,100,79,42,30.37,30.25,30.13,10,8,0,10,1,,0.17,3,,324
2013-2-3,55,40,26,39,29,25,100,67,31,30.18,30.12,30.06,10,7,0,18,4,28,0.00,1,,289
2013-2-4,48,38,28,36,30,23,93,72,46,30.15,30.07,29.99,10,10,10,6,0,,0.00,1,,155
2013-2-5,57,47,37,48,41,36,93,80,62,30.06,30.02,29.96,10,9,0,6,0,,0.00,7,,208
2013-2-6,66,52,37,45,37,30,100,72,26,30.21,30.13,30.07,10,6,0,7,1,,0.00,3,,59
2013-2-7,48,46,44,46,43,39,93,87,81,30.13,30.03,29.94,10,8,5,13,5,,0.19,7,,61
2013-2-8,53,43,32,48,40,28,94,82,62,30.26,30.09,29.95,10,7,2,15,4,21,0.28,5,,334
2013-2-9,60,43,26,37,32,25,93,69,36,30.33,30.24,30.19,10,10,5,9,4,,0.00,0,,41
2013-2-10,57,49,41,52,42,28,94,74,41,30.21,30.11,30.01,10,8,2,15,6,24,1.29,5,Thunderstorm,93
2013-2-11,57,52,46,54,50,43,94,92,82,30.17,30.10,30.01,10,8,1,7,2,,0.19,5,,245
2013-2-12,50,46,41,43,39,34,93,80,54,30.17,30.02,29.80,10,10,7,14,4,20,0.29,5,,65
2013-2-13,48,40,33,45,39,30,93,84,70,30.03,29.87,29.72,10,8,2,16,6,22,0.01,7,,282
2013-2-14,55,44,33,37,35,30,93,72,44,30.12,30.07,30.03,10,10,8,8,1,,0.00,3,,290
2013-2-15,62,45,28,39,33,27,93,67,39,30.14,30.08,30.02,10,10,10,15,3,21,0.00,3,,321
2013-2-16,42,33,24,30,20,12,80,54,31,30.22,30.12,30.05,10,10,10,21,9,28,0.00,2,,319
2013-2-17,48,34,19,23,17,12,86,56,25,30.33,30.26,30.22,10,10,10,13,2,16,0.00,0,,300
2013-2-18,60,42,24,32,26,21,93,53,27,30.32,30.19,29.98,10,10,10,15,4,23,0.00,2,,179
2013-2-19,55,46,37,46,32,16,93,60,29,30.24,30.10,29.97,10,9,2,21,8,28,0.41,3,,297
2013-2-20,46,35,24,28,21,12,86,56,25,30.27,30.21,30.14,10,10,10,13,3,,0.00,2,,342
2013-2-21,59,44,30,45,30,19,93,61,26,30.19,30.06,29.88,10,10,5,14,5,17,1.00,4,Thunderstorm,58
2013-2-22,50,47,44,45,44,41,93,90,82,30.10,30.03,29.97,10,8,2,14,9,,0.39,8,,62
2013-2-23,59,48,35,48,43,34,93,85,63,30.00,29.94,29.87,10,8,0,9,4,,0.33,4,,18
2013-2-24,62,46,30,37,33,28,93,68,30,30.08,30.01,29.96,10,9,1,8,1,,0.00,0,,25
2013-2-25,60,50,39,45,37,28,93,65,53,29.98,29.87,29.64,10,10,4,18,8,24,0.57,6,,77
2013-2-26,51,46,42,45,38,30,93,75,57,29.83,29.64,29.53,10,10,2,21,10,29,0.57,8,,222
2013-2-27,59,49,39,36,32,28,75,55,36,29.93,29.88,29.84,10,10,7,22,10,29,0.00,4,,262
2013-2-28,42,38,33,30,27,23,81,62,49,30.06,29.99,29.91,10,10,10,15,8,20,0.00,6,,294